Location: Hilton Head Island
(32.2163°N, 80.7526°W)
Time: 20:44:28
(UTC-04:00)

Vanguard 1 - Pass Details

Date: 19 February 2026
Orbit: 653 x 3818 km, 34.2° (Epoch: 9 March)

Event Time Altitude Azimuth Distance (km) Brightness Sun altitude
Rises 14:56:55 0° 244° (WSW) 4,056 14.1 35.3°
Reaches altitude 10° 14:59:08 10° 242° (WSW) 3,354 14.0 35.0°
Maximum altitude 15:07:56 78° 158° (SSE) 2,016 12.3 33.6°
Drops below altitude 10° 15:24:53 10° 75° (ENE) 6,047 13.7 31.0°
Sets 15:30:29 0° 75° (ENE) 7,445 14.1 30.1°
